Weather in Maloye Polpino

Russia / Bryansk Oblast     53°16′38″N   34°37′21″E
temp.,
°C
wind,
m/s
gust,
m/s
humid.,
%
clouds,
%
prec.,
mm/h
press.,
hPa
HPBL,
m
29 july, thu
thu2900:00+18ssw289731 0.0 1011156
03:00+17wsw25975 0.0 1011103
06:00+17sw239521 0.0 101070
09:00+22wsw2481100 0.0 1010255
12:00+27wsw345422 0.3 10091246
15:00+29wsw354013 0.3 10082387
18:00+27wsw135444 0.0 1007730
21:00+22se34746 0.0 100656
30 july, fri
fri3000:00+19w41196100 1.3 1006292
03:00+18w2697100 2.4 1007196
06:00+17w269835 0.0 1007242
09:00+21wnw358560 0.1 1007604
12:00+24wnw456883 0.3 10081129
15:00+27w465058 0.6 10071927
18:00+25w3753100 0.0 10071196
21:00+19wsw22785 0.0 100711
31 july, sat
sat3100:00+17wsw22820 0.0 100940
03:00+15wsw237692 0.0 100950
06:00+17sw2668100 0.0 1009175
09:00+22wsw495615 0.0 1009749
12:00+26w594874 0.0 10091833
15:00+27w584218 0.0 10092012
18:00+26wsw47478 0.0 10091643
21:00+20sw227075 0.0 100919
1 august, sun
sun100:00+19s227132 0.0 101032
03:00+18s237826 0.0 101067
06:00+18s288363 0.1 1010170
09:00+25ssw512565 0.1 1009681
12:00+30ssw6938100 0.0 10081957
15:00+31sw51036100 0.0 10072672
18:00+26w4966100 0.3 1007928
21:00+20wnw24945 0.3 100979
2 august, mon
mon200:00+18w11945 0.0 100911
03:00+17ssw11935 0.0 100911
06:00+17s229248 0.0 100931
09:00+24sse246393 0.0 1008435
12:00+26sse3450100 0.0 10071127
15:00+25sse3767100 0.0 1006533
18:00+29sse49545 0.0 10031120
21:00+21s1190100 1.3 100321